Location: Godiavel Galaoual
(15.2485°N, 12.6604°W)
Time: 04:46:46
(UTC+00:00)

Envisat - Pass Details

Date: 11 December 2021
Orbit: 764 x 766 km, 98.2° (Epoch: 18 January)

Event Time Altitude Azimuth Distance (km) Brightness Sun altitude
Rises 06:19:23 0° 352° (N) 3,221 5.9 -11.4°
Reaches altitude 10° 06:22:02 10° 340° (NNW) 2,295 5.1 -10.8°
Maximum altitude 06:26:08 25° 285° (WNW) 1,491 3.9 -9.9°
Drops below altitude 10° 06:30:13 10° 231° (SW) 2,292 5.2 -9.0°
Sets 06:32:52 0° 218° (SW) 3,217 6.1 -8.4°
